When you browse on this site, cookies collect data to enhance your experience and personalize the content and advertising you see.
Visit our Privacy Policy to learn more. By continuing to use the site, you agree to this use of cookies and data.
  • In Portugal
  • List of Countries
  • For 7 days
  • Water Temperature
  • Satellite Maps
  • Weather Map
  • Weather Widgets
  • user-avatar
    Login

    Hourly Weather Hurghada

    Today, 25 May, Saturday

    Time Temperature Precipitation Wind Pressure Humidity
    00:00 +31°C° 0 mm 1 mps 683 mmHg 15%
    01:00 +30°C° 0 mm 2 mps 683 mmHg 17%
    02:00 +29°C° 0 mm 2 mps 682 mmHg 19%
    03:00 +28°C° 0 mm 2 mps 682 mmHg 23%
    04:00 +27°C° 0 mm 2 mps 682 mmHg 28%
    05:00 +26°C° 0 mm 2 mps 682 mmHg 32%
    06:00 +28°C° 0 mm 2 mps 683 mmHg 30%
    07:00 +29°C° 0 mm 2 mps 684 mmHg 27%
    08:00 +30°C° 0 mm 3 mps 684 mmHg 26%
    09:00 +33°C° 0 mm 3 mps 685 mmHg 23%
    10:00 +34°C° 0 mm 3 mps 685 mmHg 21%
    11:00 +35°C° 0 mm 3 mps 685 mmHg 18%
    12:00 +36°C° 0 mm 3 mps 685 mmHg 17%
    13:00 +37°C° 0 mm 3 mps 685 mmHg 16%
    14:00 +38°C° 0 mm 3 mps 685 mmHg 15%
    15:00 +37°C° 0 mm 3 mps 684 mmHg 15%
    16:00 +37°C° 0 mm 3 mps 684 mmHg 16%
    17:00 +36°C° 0 mm 3 mps 683 mmHg 17%
    18:00 +35°C° 0 mm 3 mps 683 mmHg 18%
    19:00 +34°C° 0 mm 3 mps 683 mmHg 19%
    20:00 +33°C° 0 mm 3 mps 683 mmHg 21%
    21:00 +31°C° 0 mm 3 mps 683 mmHg 21%
    22:00 +30°C° 0 mm 2 mps 683 mmHg 21%
    23:00 +30°C° 0 mm 2 mps 683 mmHg 21%

    Tomorrow, 26 May, Sunday

    Time Temperature Precipitation Wind Pressure Humidity
    00:00 +29°C° 0 mm 2 mps 683 mmHg 23%
    01:00 +29°C° 0 mm 2 mps 683 mmHg 25%
    02:00 +28°C° 0 mm 2 mps 683 mmHg 26%
    03:00 +27°C° 0 mm 2 mps 682 mmHg 28%
    04:00 +27°C° 0 mm 2 mps 682 mmHg 31%
    05:00 +26°C° 0 mm 2 mps 682 mmHg 33%
    06:00 +28°C° 0 mm 2 mps 683 mmHg 30%
    07:00 +29°C° 0 mm 3 mps 683 mmHg 26%
    08:00 +31°C° 0 mm 3 mps 684 mmHg 23%
    09:00 +33°C° 0 mm 3 mps 684 mmHg 20%
    10:00 +35°C° 0 mm 3 mps 684 mmHg 18%
    11:00 +36°C° 0 mm 3 mps 684 mmHg 15%
    12:00 +37°C° 0 mm 3 mps 684 mmHg 14%
    13:00 +38°C° 0 mm 4 mps 684 mmHg 13%
    14:00 +38°C° 0 mm 4 mps 684 mmHg 12%
    15:00 +38°C° 0 mm 4 mps 683 mmHg 13%
    16:00 +37°C° 0 mm 4 mps 683 mmHg 13%
    17:00 +37°C° 0 mm 4 mps 682 mmHg 14%
    18:00 +36°C° 0 mm 3 mps 682 mmHg 16%
    19:00 +34°C° 0 mm 2 mps 682 mmHg 17%
    20:00 +32°C° 0 mm 2 mps 682 mmHg 19%
    21:00 +32°C° 0 mm 2 mps 682 mmHg 19%
    22:00 +31°C° 0 mm 1 mps 683 mmHg 20%
    23:00 +31°C° 0 mm 1 mps 683 mmHg 20%

    Day after tomorrow, 27 May, Monday

    Time Temperature Precipitation Wind Pressure Humidity
    00:00 +30°C° 0 mm 1 mps 682 mmHg 21%
    01:00 +29°C° 0 mm 1 mps 682 mmHg 22%
    02:00 +29°C° 0 mm 1 mps 682 mmHg 24%
    03:00 +28°C° 0 mm 2 mps 681 mmHg 24%
    04:00 +27°C° 0 mm 2 mps 681 mmHg 24%
    05:00 +27°C° 0 mm 2 mps 681 mmHg 25%
    06:00 +28°C° 0 mm 2 mps 682 mmHg 22%
    07:00 +30°C° 0 mm 2 mps 682 mmHg 19%
    08:00 +31°C° 0 mm 2 mps 683 mmHg 17%
    09:00 +34°C° 0 mm 2 mps 683 mmHg 14%
    10:00 +36°C° 0 mm 3 mps 683 mmHg 12%
    11:00 +37°C° 0 mm 3 mps 684 mmHg 10%
    12:00 +38°C° 0 mm 3 mps 683 mmHg 9%
    13:00 +38°C° 0 mm 4 mps 683 mmHg 9%
    14:00 +40°C° 0 mm 4 mps 683 mmHg 8%
    15:00 +38°C° 0 mm 4 mps 682 mmHg 9%
    16:00 +38°C° 0 mm 4 mps 682 mmHg 9%
    17:00 +37°C° 0 mm 4 mps 682 mmHg 10%
    18:00 +36°C° 0 mm 3 mps 682 mmHg 11%
    19:00 +35°C° 0 mm 3 mps 682 mmHg 12%
    20:00 +32°C° 0 mm 2 mps 682 mmHg 12%
    21:00 +32°C° 0 mm 2 mps 682 mmHg 12%
    22:00 +31°C° 0 mm 2 mps 682 mmHg 11%
    23:00 +30°C° 0 mm 2 mps 682 mmHg 11%

    28 May, Tuesday

    Time Temperature Precipitation Wind Pressure Humidity
    00:00 +30°C° 0 mm 2 mps 682 mmHg 11%
    01:00 +29°C° 0 mm 2 mps 682 mmHg 11%
    02:00 +29°C° 0 mm 2 mps 681 mmHg 11%
    03:00 +28°C° 0 mm 2 mps 681 mmHg 12%
    04:00 +28°C° 0 mm 2 mps 681 mmHg 13%
    05:00 +27°C° 0 mm 2 mps 681 mmHg 14%
    06:00 +29°C° 0 mm 2 mps 681 mmHg 13%
    07:00 +30°C° 0 mm 2 mps 682 mmHg 11%
    08:00 +33°C° 0 mm 3 mps 682 mmHg 10%
    09:00 +34°C° 0 mm 3 mps 683 mmHg 9%
    10:00 +35°C° 0 mm 3 mps 683 mmHg 8%
    11:00 +37°C° 0 mm 3 mps 683 mmHg 7%
    12:00 +37°C° 0 mm 3 mps 683 mmHg 7%
    13:00 +38°C° 0 mm 4 mps 682 mmHg 6%
    14:00 +40°C° 0 mm 4 mps 682 mmHg 6%
    15:00 +38°C° 0 mm 4 mps 682 mmHg 6%
    16:00 +37°C° 0 mm 4 mps 682 mmHg 7%
    17:00 +37°C° 0 mm 4 mps 681 mmHg 7%
    18:00 +35°C° 0 mm 4 mps 682 mmHg 8%
    19:00 +34°C° 0 mm 3 mps 682 mmHg 9%
    20:00 +32°C° 0 mm 2 mps 682 mmHg 9%
    21:00 +31°C° 0 mm 2 mps 682 mmHg 9%
    22:00 +31°C° 0 mm 2 mps 682 mmHg 8%
    23:00 +30°C° 0 mm 2 mps 682 mmHg 8%

    29 May, Wednesday

    Time Temperature Precipitation Wind Pressure Humidity
    00:00 +29°C° 0 mm 2 mps 681 mmHg 10%
    01:00 +29°C° 0 mm 2 mps 681 mmHg 13%
    02:00 +28°C° 0 mm 2 mps 680 mmHg 15%
    03:00 +27°C° 0 mm 2 mps 680 mmHg 16%
    04:00 +26°C° 0 mm 2 mps 680 mmHg 18%
    05:00 +26°C° 0 mm 2 mps 680 mmHg 19%
    06:00 +27°C° 0 mm 2 mps 681 mmHg 17%
    07:00 +29°C° 0 mm 2 mps 681 mmHg 15%
    08:00 +31°C° 0 mm 2 mps 682 mmHg 13%
    09:00 +32°C° 0 mm 2 mps 682 mmHg 12%
    10:00 +35°C° 0 mm 2 mps 683 mmHg 11%
    11:00 +36°C° 0 mm 2 mps 683 mmHg 11%
    12:00 +37°C° 0 mm 2 mps 682 mmHg 11%
    13:00 +37°C° 0 mm 3 mps 682 mmHg 10%
    14:00 +38°C° 0 mm 3 mps 682 mmHg 10%
    15:00 +37°C° 0 mm 3 mps 682 mmHg 11%
    16:00 +37°C° 0 mm 4 mps 682 mmHg 12%
    17:00 +36°C° 0 mm 4 mps 681 mmHg 13%
    18:00 +35°C° 0 mm 4 mps 681 mmHg 15%
    19:00 +33°C° 0 mm 4 mps 681 mmHg 16%
    20:00 +31°C° 0 mm 3 mps 681 mmHg 18%
    21:00 +31°C° 0 mm 3 mps 681 mmHg 18%
    22:00 +30°C° 0 mm 3 mps 681 mmHg 19%
    23:00 +30°C° 0 mm 2 mps 681 mmHg 19%

    30 May, Thursday

    Time Temperature Precipitation Wind Pressure Humidity
    00:00 +29°C° 0 mm 2 mps 681 mmHg 20%
    01:00 +29°C° 0 mm 2 mps 681 mmHg 21%
    02:00 +28°C° 0 mm 2 mps 680 mmHg 22%
    03:00 +28°C° 0 mm 2 mps 680 mmHg 24%
    04:00 +27°C° 0 mm 2 mps 681 mmHg 25%
    05:00 +27°C° 0 mm 2 mps 681 mmHg 26%
    06:00 +28°C° 0 mm 2 mps 681 mmHg 23%
    07:00 +30°C° 0 mm 2 mps 682 mmHg 21%
    08:00 +31°C° 0 mm 2 mps 682 mmHg 19%
    09:00 +34°C° 0 mm 3 mps 683 mmHg 17%
    10:00 +35°C° 0 mm 3 mps 683 mmHg 15%
    11:00 +37°C° 0 mm 3 mps 683 mmHg 13%
    12:00 +37°C° 0 mm 3 mps 683 mmHg 12%
    13:00 +38°C° 0 mm 3 mps 682 mmHg 11%
    14:00 +40°C° 0 mm 4 mps 682 mmHg 11%
    15:00 +40°C° 0 mm 4 mps 682 mmHg 11%
    16:00 +38°C° 0 mm 4 mps 682 mmHg 11%
    17:00 +38°C° 0 mm 4 mps 681 mmHg 11%
    18:00 +37°C° 0 mm 4 mps 681 mmHg 12%
    19:00 +35°C° 0 mm 4 mps 681 mmHg 14%
    20:00 +34°C° 0 mm 4 mps 681 mmHg 15%
    21:00 +33°C° 0 mm 4 mps 681 mmHg 16%
    22:00 +31°C° 0 mm 3 mps 681 mmHg 17%
    23:00 +31°C° 0 mm 3 mps 681 mmHg 17%
    Show more